Regional Weather Roundup
Issued by NWS Goodland, KS

Home | Current Version | Previous Version | Text Only | Print | Product List | Glossary Off
Versions: 1 2 3 4 5 6 7 8 9 10 11 12 13 14 15 16 17 18 19 20 21 22 23 24 25 26 27 28 29 30 31 32 33 34 35 36 37 38 39 40 41 42 43 44 45 46 47 48 49 50

827
ASUS43 KGLD 301059
RWRGLD

GOODLAND FORECAST AREA HOURLY WEATHER ROUNDUP
NATIONAL WEATHER SERVICE GOODLAND KS
500 AM MDT SAT JUL 30 2016

...OFFICIAL OBSERVATIONS...

CITY           SKY/WX    TMP DP  RH WIND       PRES   REMARKS
GOODLAND KS    CLEAR     64  61  90 S5        30.03F
HILL CITY KS   PTCLDY    65  64  97 SE3       30.00F
IMPERIAL NEB   CLOUDY    62  60  93 S7        30.02R
MCCOOK NEB     CLEAR     65  63  93 SE7       30.00S
AKRON CO       PTCLDY    63  57  81 S6        30.06F
BURLINGTON CO  CLOUDY    66  58  75 S8        30.04F
LIMON CO       CLOUDY    61  60  97 S9        30.12R
$$

...UNOFFICIAL OBSERVATIONS...

CITY           SKY/WX    TMP DP  RH WIND       PRES   REMARKS
LENORA KS        N/A     65  32  29 MISG        N/A
NORTON KS      CLEAR     64  61  88 SE5       30.00S
SHARON SPRINGS   N/A     66  62  87 SW8         N/A
KIT CARSON CO    N/A     65  59  82 MISG        N/A
YUMA CO          N/A     61  57  85 CALM        N/A
$$




USA.gov is the U.S. government's official web portal to all federal, state and local government web resources and services.